Flag for Canada Weather past 2 weeks in East Hants, Nova Scotia, Canada

Now
66 °F

Partly sunny.


Feels Like: 66 °F
Forecast: 58 / 76 °F
Wind: 8 mph from Northeast

Location: Halifax International Airport

Current Time: Aug 20, 2014 at 9:49:45 PM

Latest Report: Aug 20, 2014 at 9:00 PM


Visibility: 15 mi

Pressure: 30.04 "Hg

Humidity: 78%

Dew point: 59 °F

Location of East HantsLocation

Historic Weather in East Hants — Graph

°F

East Hants temperature yesterday

Maximum temperature yesterday: 72 °F (at 2:00 PM)
Minimum temperature yesterday: 57 °F (at 5:00 AM)
Average temperature yesterday: 64 °F

Past Weeks' High & Low Weather Summary

 TemperatureHumidityPressure
High79 °F (Aug 6, 5:00 PM)100% (Aug 6, 4:00 AM)30.19 "Hg (Aug 6, 4:00 AM)
Low55 °F (Aug 12, 3:00 AM)45% (Aug 20, 5:00 PM)29.59 "Hg (Aug 18, 2:00 PM)
Average64 °F83%29.91 "Hg
* Reported Aug 5 8:00 PM — Aug 20 8:00 PM, East Hants, Weather by CustomWeather, © 2014

Note: Actual official high and low records may vary slightly from our data, if they occured in-between our weather recording intervals... More about our weather records

Advertising

East Hants weather history for previous 24 hours

 ConditionsComfort  
Time TempWeatherWind HumidityBarometerVisibility
8:00 PM
Aug 20
68 °FPassing clouds.6 mph78%30.03 "Hg15 mi
7:00 PM72 °FPassing clouds.14 mph69%30.01 "Hg15 mi
6:00 PM77 °FPassing clouds.15 mph51%29.99 "Hg15 mi
5:00 PM79 °FPassing clouds.15 mph45%29.97 "Hg15 mi
4:00 PM79 °FPassing clouds.13 mph48%29.96 "Hg15 mi
3:00 PM77 °FScattered clouds.15 mph54%29.96 "Hg15 mi
2:00 PM77 °FScattered clouds.13 mph51%29.97 "Hg15 mi
1:00 PM75 °FScattered clouds.14 mph54%29.97 "Hg15 mi
12:00 PM75 °FMild.10 mph57%29.97 "Hg15 mi
11:00 AM73 °FPassing clouds.7 mph57%29.97 "Hg15 mi
10:00 AM70 °FPassing clouds.10 mph69%29.96 "Hg15 mi
9:00 AM66 °FPassing clouds.8 mph73%29.95 "Hg15 mi
8:00 AM63 °FPassing clouds.8 mph83%29.94 "Hg15 mi
7:00 AM61 °FPassing clouds.7 mph83%29.93 "Hg15 mi
6:00 AM59 °FPassing clouds.7 mph88%29.91 "Hg15 mi
5:00 AM59 °FClear.8 mph88%29.89 "Hg15 mi
4:00 AM61 °FClear.6 mph83%29.88 "Hg15 mi
3:00 AM61 °FClear.8 mph83%29.88 "Hg15 mi
2:00 AM61 °FPassing clouds.12 mph83%29.87 "Hg15 mi
1:00 AM64 °FPassing clouds.14 mph78%29.87 "Hg15 mi
12:00 AM64 °FPassing clouds.13 mph78%29.87 "Hg15 mi
11:00 PM
Aug 19
64 °FPassing clouds.13 mph78%29.87 "Hg15 mi
10:00 PM64 °FPassing clouds.10 mph78%29.86 "Hg15 mi
9:00 PM66 °FScattered clouds.6 mph73%29.85 "Hg15 mi
Weather by CustomWeather, © 2014

See weather overviewHow to use our weather pages